Zurück zum Katalog

COSMOS 1275 DEB

AktivPO
NORAD 17627·DEBRIS·🇷🇺 Russia

Gestartet Jun 4, 1981 von Plesetsk Cosmodrome

Loading…

Nächste Überflüge (nächste 24 Stunden)

TLE

AktuellSource: Space-Track

Epoche: Sep 14, 2026, 12:48 UTC

1 17627U 81053KW  26257.53380613  .00001000  00000-0  65061-3 0  9993
2 17627  82.9208 285.9363 0048246 164.1951 196.0739 14.01030389 98136

Verfolge COSMOS 1275 DEB in Echtzeit mit AllMySat

Download on the App Store